This is the latest recevied weather packets stored in our database for station/object W4DEX-2. If no packets are shown the sender has not sent any weather packets the latest 10 day(s).
| Time | Temp. | Humidity | Pressure | Rain* | Wind** | Luminosity | Snow |
|---|---|---|---|---|---|---|---|
| 1777735503 | 11.11° C | 77% | 1013.6 hPa | 0 mm | 4.02 m/s, 168° | - | - |
| 1777735202 | 11.11° C | 79% | 1013.7 hPa | 1.02 mm | 4.02 m/s, 170° | - | - |
| 1777734603 | 11.11° C | 82% | 1013.6 hPa | 1.02 mm | 4.47 m/s, 180° | - | - |
| 1777734302 | 10.56° C | 82% | 1013.6 hPa | 1.02 mm | 4.92 m/s, 170° | - | - |
| 1777733702 | 11.11° C | 83% | 1013.6 hPa | 1.02 mm | 4.92 m/s, 174° | - | - |
| 1777733403 | 10.56° C | 84% | 1013.5 hPa | 0 mm | 4.02 m/s, 168° | - | - |
| 1777733103 | 11.11° C | 86% | 1013.1 hPa | 1.02 mm | 3.58 m/s, 167° | - | - |
| 1777732802 | 11.11° C | 86% | 1012.7 hPa | 1.02 mm | 5.36 m/s, 175° | - | - |
| 1777732502 | 11.11° C | 85% | 1012.8 hPa | 0 mm | 4.47 m/s, 176° | - | - |
| 1777731902 | 11.11° C | 85% | 1013.1 hPa | 1.02 mm | 4.92 m/s, 176° | - | - |
| 1777731602 | 11.11° C | 85% | 1013 hPa | 1.02 mm | 4.02 m/s, 178° | - | - |
| 1777731003 | 11.11° C | 86% | 1013 hPa | 2.29 mm | 4.02 m/s, 177° | - | - |
| 1777730702 | 11.11° C | 86% | 1013 hPa | 1.02 mm | 4.47 m/s, 176° | - | - |
| 1777730402 | 11.11° C | 85% | 1013.2 hPa | 1.02 mm | 4.02 m/s, 172° | - | - |
| 1777730103 | 11.11° C | 85% | 1013.3 hPa | 2.29 mm | 4.02 m/s, 172° | - | - |
| 1777729802 | 11.11° C | 85% | 1013.4 hPa | 2.29 mm | 3.58 m/s, 176° | - | - |
| 1777729502 | 11.11° C | 85% | 1013.3 hPa | 1.02 mm | 4.02 m/s, 173° | - | - |
| 1777729203 | 11.11° C | 85% | 1013.1 hPa | 0 mm | 4.92 m/s, 177° | - | - |
| 1777728602 | 11.11° C | 84% | 1012.9 hPa | 1.02 mm | 4.02 m/s, 174° | - | - |
| 1777728302 | 11.11° C | 85% | 1012.7 hPa | 1.02 mm | 4.02 m/s, 172° | - | - |
| 1777728002 | 11.11° C | 85% | 1012.7 hPa | 0 mm | 5.36 m/s, 173° | - | - |
| 1777727402 | 11.11° C | 85% | 1012.2 hPa | 0 mm | 4.92 m/s, 172° | - | - |
| 1777727102 | 11.11° C | 86% | 1012.2 hPa | 0 mm | 2.68 m/s, 171° | - | - |
| 1777726803 | 10.56° C | 87% | 1012 hPa | 0 mm | 5.36 m/s, 170° | - | - |
| 1777726202 | 10.56° C | 88% | 1012.1 hPa | 0 mm | 5.36 m/s, 163° | - | - |
* Rain latest hour (hover to see other rain measurements)
** Current wind speed in m/s (hover to see current wind gust speed)